User: anonymous   Login
Location: Innerarity Island Observatory
(30.3139°N, 87.4867°W)
Time: 15:12:19
(UTC-06:00)
Language:

OPAL - Orbit

View from above orbital plane
View from above orbital plane
View from above satellite
View from above satellite

Ground track
Ground track

The orbit data is extracted from the following two-line orbital elements,

1 26063U 00004C   16344.43960293  .00000024  00000-0  28071-4 0  9993
2 26063 100.2100 306.8504 0037023 122.7370 237.7388 14.36645029884149
Epoch (UTC): 09 December 2016 10:33:01
Eccentricity: 0.0037023
inclination: 100.2100°
perigee height: 743 km
apogee height: 796 km
right ascension of ascending node: 306.8504°
argument of perigee: 122.7370°
revolutions per day: 14.36645029
mean anomaly at epoch: 237.7388°
orbit number at epoch: 88414

The dashed part of the orbit path shows where the satellite is in the earth's shadow,  

DLR